Temperature
17 17 17 17 17 17 17 17 17 16 16 16 16 17 17 17 16 16 16 16 17 16 16 16 16 16 16 16 16 15 15 15 15 15 15 15 15 15
17 17 17 17 17 17 17 17 17 16 16 16 16 16 16 16 16 16 16 16 16 16 16 16 16 16 16 16 16 15 15 15 15 15 15 15 15 15
16 16 16 16 16 16 16 16 16 16 16 16 16 16 16 16 16 16 16 16 16 16 16 16 16 16 16 15 15 15 15 15 15 15 15 15 15 14
16 16 16 16 16 16 16 16 16 16 16 16 16 16 16 16 16 16 16 16 16 16 16 16 16 16 16 15 15 15 15 15 15 15 15 15 15 14
16 16 16 16 16 16 16 16 16 16 16 16 16 16 16 16 16 16 16 16 16 16 16 15 15 16 16 15 15 15 15 15 15 15 15 15 15 14
15 15 15 15 15 15 15 15 15 15 15 15 16 16 15 15 15 15 15 16 16 15 15 15 15 15 15 15 15 15 15 15 15 15 15 14 14 14
15 15 15 15 15 15 15 15 15 15 15 15 15 15 15 15 15 15 15 15 15 15 15 15 15 15 15 15 15 15 15 15 15 15 14 14 14 14
15 15 15 15 15 15 15 15 15 15 15 15 15 15 15 15 15 15 15 15 15 15 15 15 15 15 15 15 15 15 15 15 15 14 14 14 14 14
15 15 15 14 14 15 15 15 14 14 15 14 14 15 15 15 15 15 15 15 15 15 14 15 15 15 15 15 15 15 15 15 14 14 14 14 14 14
15 14 14 14 14 14 14 14 14 14 14 14 14 15 14 14 14 14 14 14 14 15 14 14 15 15 15 15 15 14 14 14 14 14 14 14 14 13
15 14 14 14 14 14 14 14 14 14 14 14 14 14 14 14 14 14 14 14 14 14 14 14 14 14 14 14 14 14 14 14 14 14 14 13 13 13
14 14 14 14 14 14 14 14 14 14 14 14 14 14 14 14 14 14 14 14 14 14 14 14 14 14 14 14 14 14 14 14 14 13 13 13 13 13
14 14 14 14 14 14 14 14 14 14 14 14 14 14 14 14 14 14 14 14 14 14 14 13 13 13 13 13 14 14 13 13 13 13 13 13 13 12
14 14 14 14 14 14 13 13 13 13 13 13 13 14 14 14 14 14 14 14 14 14 14 14 13 13 13 13 13 13 13 13 13 13 13 13 12 12
14 13 13 13 13 13 13 13 13 13 13 13 13 13 13 13 13 13 13 13 13 13 13 13 13 13 13 13 13 13 13 13 13 13 13 12 12 12
13 13 13 13 13 13 13 13 13 13 12 12 12 13 13 13 13 13 13 13 13 13 13 13 13 13 13 13 13 13 13 13 12 12 12 12 12 12
13 12 12 12 12 12 12 12 12 12 12 12 12 12 12 12 12 12 12 12 12 12 13 13 13 13 13 12 12 12 12 12 12 12 12 12 12 11
12 12 12 12 12 11 11 11 11 11 11 11 11 12 12 12 12 12 12 12 12 12 12 12 12 12 12 12 12 12 12 12 12 12 11 11 11 11
11 11 11 11 11 11 11 11 11 11 11 11 11 11 11 11 11 11 11 12 12 12 12 12 12 12 11 11 12 12 11 11 11 11 11 11 11 11
11 11 11 11 11 11 10 10 10 10 10 10 10 10 10 11 11 11 11 11 11 11 11 11 11 11 11 11 11 11 11 11 11 11 10 10 10 10
11 11 10 10 10 10 10 10 10 10 10 10 10 10 10 10 10 10 10 10 10 10 10 11 11 10 10 10 10 10 11 10 11 10 10 10 10 10
10 10 10 10 10 10 10 10 10 9 9 9 9 9 9 10 10 10 10 10 10 10 10 10 10 10 10 10 10 10 10 10 10 10 10 10 9 9
10 10 10 10 9 9 9 9 9 9 9 9 9 9 9 9 9 9 9 9 9 9 9 9 9 9 9 9 9 9 9 9 9 9 9 9 9 9
Wind_Speed
2 1 1 2 2 1 2 3 3 2 3 3 2 3 4 5 8 9 9 11 13 14 14 13 13 14 14 13 13 12 12 11 11 12 12 12 12 12
2 1 2 2 2 1 1 1 2 3 3 3 3 3 4 5 7 9 10 11 13 13 14 14 14 14 14 13 13 13 13 12 12 12 11 11 11 11
2 2 2 2 1 2 1 1 1 2 3 3 2 2 2 3 3 6 8 8 9 12 13 13 14 14 14 14 13 13 13 13 12 12 12 12 11 11
3 2 3 2 2 2 1 2 2 2 3 3 2 2 3 3 3 4 5 7 8 11 13 14 14 14 14 14 14 14 14 14 14 13 13 13 12 12
2 2 3 2 2 2 2 2 3 3 2 2 3 2 3 2 1 2 3 3 6 8 11 13 14 14 15 15 15 15 14 14 15 15 15 14 13 12
3 3 3 2 3 3 3 3 3 2 2 2 3 2 2 2 1 2 2 3 4 5 7 9 11 13 15 15 15 15 15 15 15 15 15 14 13 13
4 3 3 3 4 3 3 3 2 2 2 2 3 2 3 2 2 3 3 3 4 3 3 4 5 6 9 13 15 15 16 16 16 16 15 15 15 14
4 4 4 4 5 5 5 4 3 3 3 3 4 5 5 5 3 3 3 2 3 3 3 5 4 5 6 8 12 15 16 16 16 16 16 15 15 15
4 4 4 4 4 3 5 5 5 6 6 5 6 7 7 6 5 5 4 4 6 4 3 5 4 6 6 9 12 14 15 15 15 16 15 15 15 16
4 4 4 5 5 4 4 4 5 6 7 6 7 8 8 7 7 7 7 6 5 4 4 4 4 5 5 6 11 14 14 14 14 15 15 15 14 14
5 4 4 5 7 6 4 5 6 7 8 8 9 10 10 10 7 4 4 4 4 4 4 4 4 3 4 5 6 11 13 13 14 14 14 14 14 13
4 4 6 6 7 6 4 5 7 7 6 6 6 7 7 8 8 7 7 6 4 4 3 4 3 2 2 3 4 5 7 10 13 14 14 14 13 9
4 4 5 8 8 8 6 5 8 7 5 5 5 5 5 5 5 6 6 7 6 6 4 4 3 3 3 3 2 3 4 4 6 7 11 13 13 11
5 4 5 7 7 7 5 6 7 5 3 4 4 5 5 5 5 5 7 8 8 8 7 5 4 5 4 3 3 3 3 4 4 4 5 8 11 13
4 6 7 6 5 5 6 7 5 2 2 3 5 6 5 5 4 4 4 5 6 7 7 7 6 5 4 4 4 3 3 3 4 4 4 5 5 6
4 5 5 5 3 4 5 4 2 2 2 4 5 5 4 4 3 3 3 3 3 4 4 5 6 6 5 4 4 4 3 3 3 4 3 4 4 6
2 2 2 3 3 3 3 3 3 2 2 3 4 4 4 4 4 3 2 2 3 3 3 2 2 4 5 5 4 4 3 3 4 4 3 3 4 5
1 1 2 2 3 3 3 3 3 2 3 3 3 3 4 4 4 3 2 2 3 3 3 2 1 0 0 2 4 5 4 4 3 3 3 3 3 3
1 1 2 2 3 2 2 3 3 3 3 2 3 4 4 4 4 3 2 2 2 3 3 2 1 2 2 3 3 3 4 3 2 2 3 3 3 3
1 2 2 2 2 2 2 3 3 3 3 3 3 4 4 4 4 4 3 3 3 2 2 1 1 2 4 3 2 2 3 4 3 3 3 2 1 2
2 2 2 2 2 2 2 2 2 2 3 3 3 4 4 3 4 4 4 4 2 2 2 3 3 3 1 1 1 1 1 2 4 4 3 3 1 1
2 2 2 2 2 2 2 2 2 3 3 3 3 4 4 3 4 4 4 3 3 3 3 2 1 1 1 2 2 1 1 1 0 1 3 3 3 4
2 1 2 2 2 1 1 1 2 2 2 3 3 3 4 4 4 3 4 3 2 2 1 1 0 0 1 1 2 1 1 1 0 1 1 2 3 5
Wind_Direction
281 270 262 271 258 230 194 169 164 198 245 254 251 239 215 202 206 199 203 208 212 215 215 215 216 216 218 220 220 222 221 221 220 217 218 220 223 226
299 310 300 280 283 268 232 184 160 170 215 240 235 248 221 217 205 204 211 215 216 216 217 218 218 218 219 218 219 221 222 223 219 216 218 221 220 223
322 325 300 291 310 305 263 194 179 163 194 253 244 257 206 223 216 213 217 218 224 222 221 220 219 221 221 220 220 222 223 221 219 217 219 223 224 224
309 318 304 299 301 297 288 247 229 206 188 231 258 246 233 230 218 220 228 228 231 231 227 226 224 222 221 221 220 220 222 222 221 220 221 223 224 224
287 289 289 284 287 286 269 260 247 233 200 205 240 235 240 242 220 244 239 238 240 238 230 231 230 229 227 224 222 221 222 222 222 221 220 220 222 222
281 276 277 263 267 271 273 263 251 233 213 211 239 244 243 249 194 227 261 252 243 240 232 230 233 235 234 228 224 224 224 224 223 222 221 220 220 221
282 276 271 273 276 269 271 256 245 236 226 230 245 251 251 246 228 222 237 250 248 232 227 234 231 236 235 230 227 227 225 225 224 224 223 223 222 221
280 279 276 272 280 278 277 269 239 228 232 232 244 245 248 241 232 228 227 234 259 234 214 245 217 230 234 226 227 225 226 226 224 224 224 224 224 224
269 271 281 286 277 276 281 279 267 252 230 221 235 244 245 237 228 233 229 226 239 222 199 246 230 235 237 234 226 224 225 225 224 225 226 224 225 225
265 259 261 276 276 260 269 279 274 268 251 239 235 244 245 237 224 227 229 238 254 238 190 228 238 238 243 237 226 222 223 224 225 227 229 227 225 226
276 272 262 268 274 263 256 270 279 282 270 256 249 251 250 246 228 216 223 226 254 256 204 203 235 244 245 243 237 225 222 222 225 226 228 228 225 223
287 280 270 275 281 270 248 254 269 276 284 291 283 277 265 253 234 217 213 218 235 250 220 195 221 210 255 245 233 228 226 228 227 227 226 225 219 213
279 285 289 290 283 275 256 249 257 265 279 282 284 283 280 264 246 227 212 209 218 238 219 183 209 209 216 255 254 229 217 218 220 225 226 221 213 202
266 277 285 291 291 286 273 271 271 271 279 288 288 286 281 272 259 244 232 224 225 232 230 196 207 209 212 238 253 241 227 218 209 216 221 214 212 211
269 283 294 296 295 293 283 278 276 278 287 292 285 279 273 269 264 256 253 242 244 247 241 224 215 211 203 223 236 238 244 236 212 212 212 206 203 198
293 298 301 308 307 297 301 300 281 266 264 277 287 286 284 281 272 253 255 261 263 279 260 233 217 203 217 222 221 233 228 216 216 214 210 212 208 203
308 335 352 349 344 332 322 315 312 321 301 294 299 305 306 300 289 273 257 250 245 262 283 286 249 214 208 206 216 227 227 236 224 207 193 211 221 211
70 326 303 302 306 311 313 316 322 316 305 307 309 307 305 302 298 296 273 250 258 259 264 275 302 63 22 270 219 217 227 233 219 194 183 193 222 224
116 273 284 293 296 299 299 296 298 301 305 315 316 315 314 310 307 304 298 274 263 264 265 254 215 185 213 266 283 217 205 215 185 178 192 185 208 223
273 271 279 289 295 300 303 307 312 322 330 329 325 325 321 315 311 307 294 276 268 263 267 261 217 218 216 219 232 268 212 189 185 190 194 193 219 240
282 288 295 299 302 311 316 317 316 320 325 323 321 318 318 319 316 309 302 290 268 251 244 245 244 245 223 124 114 297 279 218 191 190 182 172 195 215
282 288 297 303 305 313 321 328 332 331 327 322 318 317 315 312 312 314 310 298 270 244 240 250 281 67 105 157 200 240 285 336 342 171 180 176 180 198
265 271 291 307 304 304 310 325 330 324 320 313 312 314 315 313 311 312 310 302 291 264 237 246 0 99 164 190 198 222 232 263 32 74 327 313 220 215
Height
1510 1509 1509 1508 1507 1507 1506 1505 1506 1505 1504 1504 1505 1505 1506 1506 1507 1507 1508 1509 1509 1510 1510 1511 1511 1512 1512 1513 1513 1514 1514 1515 1516 1517 1518 1518 1519 1520
1508 1507 1506 1505 1505 1505 1504 1503 1503 1503 1502 1503 1503 1503 1504 1504 1504 1505 1505 1506 1507 1507 1508 1508 1508 1509 1509 1509 1510 1511 1511 1512 1513 1514 1514 1515 1516 1516
1506 1505 1504 1503 1502 1502 1501 1501 1501 1501 1500 1501 1501 1501 1502 1502 1502 1502 1503 1503 1503 1504 1504 1505 1505 1506 1506 1506 1507 1507 1508 1509 1510 1510 1511 1511 1512 1513
1504 1503 1502 1501 1500 1500 1499 1499 1499 1499 1498 1498 1498 1499 1499 1499 1499 1499 1500 1500 1500 1501 1501 1502 1502 1502 1503 1503 1503 1504 1505 1505 1506 1507 1507 1508 1508 1509
1502 1501 1500 1499 1498 1497 1497 1496 1496 1496 1496 1495 1495 1495 1496 1496 1495 1496 1496 1496 1496 1497 1497 1498 1499 1499 1499 1500 1500 1500 1501 1502 1502 1503 1503 1504 1504 1505
1500 1499 1498 1497 1496 1495 1494 1494 1493 1493 1493 1492 1492 1492 1492 1492 1492 1492 1492 1492 1493 1493 1494 1494 1495 1495 1495 1496 1496 1496 1497 1498 1498 1499 1499 1500 1500 1501
1497 1496 1495 1494 1493 1493 1492 1491 1491 1490 1489 1488 1488 1488 1488 1488 1488 1489 1489 1489 1489 1489 1490 1490 1491 1491 1491 1491 1492 1492 1493 1493 1494 1495 1495 1495 1496 1497
1494 1493 1492 1491 1490 1490 1489 1488 1488 1487 1486 1485 1485 1484 1484 1485 1485 1485 1485 1484 1484 1485 1486 1486 1486 1486 1487 1487 1487 1488 1488 1489 1489 1490 1491 1491 1492 1492
1491 1490 1489 1487 1487 1486 1485 1484 1484 1483 1483 1482 1481 1480 1480 1480 1481 1481 1480 1480 1480 1480 1481 1480 1481 1482 1482 1482 1483 1483 1484 1484 1485 1485 1486 1486 1487 1487
1488 1487 1485 1484 1483 1482 1481 1480 1479 1479 1478 1478 1477 1476 1476 1476 1476 1476 1476 1476 1476 1476 1476 1475 1476 1476 1477 1477 1478 1478 1479 1479 1480 1480 1481 1481 1482 1483
1485 1483 1482 1480 1479 1478 1477 1476 1475 1474 1474 1473 1472 1471 1471 1470 1470 1471 1470 1470 1469 1469 1471 1471 1470 1471 1471 1472 1472 1473 1474 1474 1475 1475 1476 1476 1477 1478
1481 1479 1478 1477 1475 1474 1473 1472 1470 1469 1469 1468 1467 1466 1465 1465 1465 1465 1464 1464 1464 1464 1465 1466 1466 1466 1465 1466 1467 1467 1468 1468 1469 1470 1470 1471 1472 1472
1477 1475 1474 1473 1472 1470 1469 1468 1466 1466 1464 1463 1462 1461 1460 1460 1459 1459 1459 1459 1459 1458 1459 1461 1461 1461 1461 1461 1461 1462 1462 1462 1463 1464 1465 1465 1466 1466
1473 1472 1470 1469 1468 1466 1465 1463 1463 1462 1460 1459 1457 1456 1455 1454 1454 1454 1454 1454 1453 1453 1454 1455 1455 1455 1456 1455 1455 1456 1457 1457 1457 1458 1459 1459 1460 1460
1469 1468 1467 1465 1464 1462 1461 1460 1459 1457 1456 1455 1453 1452 1451 1450 1450 1449 1448 1448 1448 1448 1448 1449 1450 1450 1450 1450 1450 1450 1450 1451 1452 1452 1453 1453 1454 1454
1466 1464 1463 1461 1459 1458 1456 1455 1454 1453 1452 1450 1449 1447 1446 1446 1445 1444 1444 1443 1443 1443 1444 1444 1445 1445 1445 1445 1445 1445 1445 1445 1446 1447 1447 1448 1448 1449
1462 1460 1459 1457 1455 1454 1452 1451 1451 1449 1448 1447 1445 1444 1442 1441 1441 1440 1440 1439 1439 1439 1439 1439 1440 1440 1440 1440 1439 1440 1440 1440 1441 1441 1442 1442 1443 1443
1459 1456 1455 1453 1452 1451 1449 1448 1447 1446 1445 1443 1442 1440 1439 1438 1437 1436 1436 1435 1435 1434 1434 1434 1435 1435 1435 1435 1436 1435 1435 1435 1436 1436 1436 1436 1437 1439
1456 1454 1453 1451 1449 1448 1447 1445 1444 1443 1441 1440 1439 1437 1436 1435 1434 1432 1432 1431 1431 1430 1430 1430 1430 1430 1430 1430 1431 1432 1431 1431 1431 1431 1432 1432 1433 1434
1453 1452 1450 1449 1447 1446 1444 1443 1441 1440 1438 1437 1436 1434 1433 1432 1430 1429 1428 1427 1427 1426 1426 1426 1426 1426 1426 1426 1427 1427 1428 1428 1427 1427 1428 1429 1430 1431
1451 1449 1448 1446 1445 1443 1442 1440 1438 1437 1435 1434 1433 1431 1430 1428 1427 1425 1424 1423 1423 1422 1422 1422 1422 1423 1423 1423 1423 1423 1424 1425 1425 1425 1425 1426 1426 1427
1449 1447 1446 1444 1443 1441 1439 1437 1436 1434 1433 1431 1430 1428 1427 1425 1423 1422 1421 1420 1419 1419 1418 1418 1419 1419 1419 1419 1419 1420 1420 1422 1422 1423 1423 1423 1423 1423
1446 1445 1443 1442 1440 1438 1436 1434 1433 1431 1430 1428 1426 1425 1423 1421 1420 1418 1417 1416 1415 1415 1415 1415 1415 1415 1416 1416 1417 1417 1418 1418 1419 1419 1420 1421 1421 1422